GOES-S [+]

Last updated on Sept. 9, 2020, 5:41 a.m. UTC

1 43226U 18022A   20252.72425118  .00000096  00000-0  00000-0 0  9996
2 43226   0.0715 290.1318 0000367 248.0365 293.6308  1.00270229  9283
UTC
Height (km)
Latitude
Longitude
Inclination
Orbital Period
UTC large
Height (km)
Speed (km/s)
/
Latitude / Longitude
Inclination (degrees)
Orbital Period (minutes)
Azimuth
Elevation
Range (km)
Doppler Factor
iOS Compass Heading
iOS Angle